Location: Ferintosh
(52.7647°N, 112.9692°W)
Time: 13:05:10
(UTC+00:00)

Transit 2A - Pass Details

Date: 23 May 2024
Orbit: 593 x 959 km, 66.7° (Epoch: 14 June)

Event Time Altitude Azimuth Distance (km) Brightness Sun altitude
Rises 07:35:22 0° 243° (WSW) 2,990 - -16.5°
Exits shadow 07:36:24 - 245° (WSW) 2,601 8.5 -16.5°
Reaches altitude 10° 07:37:40 10° 250° (WSW) 2,129 8.1 -16.5°
Maximum altitude 07:42:17 43° 322° (NW) 1,026 7.0 -16.5°
Drops below altitude 10° 07:47:26 10° 34° (NE) 2,368 9.5 -16.4°
Sets 07:50:07 0° 41° (NE) 3,366 10.2 -16.4°
